Satellite: CP4
Catalog number: 31122
Epoch time:      07206.69867539
Element set:    0093
Inclination:      098.0850 deg
RA of node:       278.7318 deg
Eccentricity:    0.0084409
Arg of perigee:   265.8977 deg
Mean anomaly:     093.2548 deg
Mean motion:   14.55020730 rev/day
Decay rate:       5.95e-06 rev/day^2
Epoch rev:           01445
Checksum:              328

Satellite: CP3
Catalog number: 31128
Epoch time:      07206.63966973
Element set:    0087
Inclination:      098.0809 deg
RA of node:       278.1782 deg
Eccentricity:    0.0101769
Arg of perigee:   267.1215 deg
Mean anomaly:     091.8340 deg
Mean motion:   14.51849792 rev/day
Decay rate:       -4.9e-07 rev/day^2
Epoch rev:           01440
Checksum:              322

Satellite: LIBERT
Catalog number: 31129
Epoch time:      07207.80531581
Element set:     247
Inclination:      098.0792 deg
RA of node:       279.3060 deg
Eccentricity:    0.0101752
Arg of perigee:   263.7739 deg
Mean anomaly:     095.1758 deg
Mean motion:   14.51942823 rev/day
Decay rate:       3.83e-06 rev/day^2
Epoch rev:            1455
Checksum:              303

/EX
SB KEPS @ AMSAT  $ORB07207.W
Orbital Elements  07207.WEATHER

HR AMSAT ORBITAL ELEMENTS FOR WEATHER SATELLITES
FROM WA5QGD FORT WORTH,TX July 26, 2007
Send Subscribe/unsubscribe to KEPS at 
http://www.amsat.org/mailman/listinfo/keps
BID: ORB07207.W
TO ALL RADIO AMATEURS BT

Satellite: NOAA-10
Catalog number: 16969
Epoch time:      07207.06879721
Element set:     741
Inclination:      098.7448 deg
RA of node:       224.2719 deg
Eccentricity:    0.0013317
Arg of perigee:   056.2465 deg
Mean anomaly:     303.9981 deg
Mean motion:   14.27330109 rev/day
Decay rate:        3.3e-07 rev/day^2
Epoch rev:            8477
Checksum:              316

Satellite: NOAA-11
Catalog number: 19531
Epoch time:      07207.16815838
Element set:     743
Inclination:      098.8122 deg
RA of node:       295.8487 deg
Eccentricity:    0.0010791
Arg of perigee:   281.1539 deg
Mean anomaly:     078.8424 deg
Mean motion:   14.14846558 rev/day
Decay rate:      -1.06e-06 rev/day^2
Epoch rev:           97166
Checksum:              337

Satellite: NOAA-12
Catalog number: 21263
Epoch time:      07207.11730175
Element set:     239
Inclination:      098.7529 deg
RA of node:       204.2950 deg
Eccentricity:    0.0012793
Arg of perigee:   359.6146 deg
Mean anomaly:     000.5040 deg
Mean motion:   14.25548548 rev/day
Decay rate:        8.0e-08 rev/day^2
Epoch rev:           84179
Checksum:              294

Satellite: MET-3/5
Catalog number: 21655
Epoch time:      07206.91690800
Element set:    0331
Inclination:      082.5540 deg
RA of node:       335.5777 deg
Eccentricity:    0.0014543
Arg of perigee:   108.7975 deg
Mean anomaly:     251.4726 deg
Mean motion:   13.17012190 rev/day
Decay rate:        5.1e-07 rev/day^2
Epoch rev:           76650
Checksum:              290

Satellite: MET-2/21
Catalog number: 22782
Epoch time:      07207.49148776
Element set:     887
Inclination:      082.5476 deg
RA of node:       010.7288 deg
Eccentricity:    0.0023671
Arg of perigee:   123.5692 deg
Mean anomaly:     236.7748 deg
Mean motion:   13.83619146 rev/day
Decay rate:        2.4e-07 rev/day^2
Epoch rev:           70195
Checksum:              334

Satellite: OKEAN-4
Catalog number: 23317
Epoch time:      07206.78715405
Element set:    0327
Inclination:      082.5381 deg
RA of node:       260.5223 deg
Eccentricity:    0.0023772
Arg of perigee:   122.8662 deg
Mean anomaly:     237.4880 deg
Mean motion:   14.82520118 rev/day
Decay rate:        2.5e-07 rev/day^2
Epoch rev:           68977
Checksum:              298

Satellite: NOAA-14
Catalog number: 23455
Epoch time:      07207.43011654
Element set:     723
Inclination:      098.9875 deg
RA of node:       273.8214 deg
Eccentricity:    0.0009154
Arg of perigee:   355.1681 deg
Mean anomaly:     004.9391 deg
Mean motion:   14.13723125 rev/day
Decay rate:       -8.1e-07 rev/day^2
Epoch rev:           64818
Checksum:              300

Satellite: SICH-1
Catalog number: 23657
Epoch time:      07206.78683943
Element set:    0126
Inclination:      082.5265 deg
RA of node:       041.4674 deg
Eccentricity:    0.0025538
Arg of perigee:   114.5625 deg
Mean anomaly:     245.8264 deg
Mean motion:   14.81502471 rev/day
Decay rate:       1.28e-06 rev/day^2
Epoch rev:           64174
Checksum:              304

Satellite: NOAA-15
Catalog number: 25338
Epoch time:      07207.29121401
Element set:      80
Inclination:      098.5314 deg
RA of node:       202.8733 deg
Eccentricity:    0.0009496
Arg of perigee:   276.3484 deg
Mean anomaly:     083.6614 deg
Mean motion:   14.24656613 rev/day
Decay rate:       -1.3e-07 rev/day^2
Epoch rev:           47825
Checksum:              296

Satellite: RESURS
Catalog number: 25394
Epoch time:      07207.69335938
Element set:     696
Inclination:      098.4387 deg
RA of node:       260.6559 deg
Eccentricity:    0.0002474
Arg of perigee:   070.5112 deg
Mean anomaly:     289.6333 deg
Mean motion:   14.24141377 rev/day
Decay rate:       -1.5e-07 rev/day^2
Epoch rev:           46997
Checksum:              331

Satellite: FENGYUN1
Catalog number: 25730
Epoch time:      07207.94433537
Element set:     184
Inclination:      098.6876 deg
RA of node:       190.3041 deg
Eccentricity:    0.0021091
Arg of perigee:   019.4511 deg
Mean anomaly:     340.7474 deg
Mean motion:   14.07564592 rev/day
Decay rate:       6.10e-06 rev/day^2
Epoch rev:           42306
Checksum:              284

Satellite: OKEAN-0
Catalog number: 25860
Epoch time:      07206.53246917
Element set:    0114
Inclination:      097.7313 deg
RA of node:       206.9899 deg
Eccentricity:    0.0000551
Arg of perigee:   065.7988 deg
Mean anomaly:     294.3272 deg
Mean motion:   14.73464816 rev/day
Decay rate:        2.5e-07 rev/day^2
Epoch rev:           43114
Checksum:              310

Satellite: NOAA-16
Catalog number: 26536
Epoch time:      07207.36359971
Element set:     499
Inclination:      099.1177 deg
RA of node:       184.9903 deg
Eccentricity:    0.0011452
Arg of perigee:   065.6034 deg
Mean anomaly:     294.6360 deg
Mean motion:   14.12441221 rev/day
Decay rate:        7.8e-07 rev/day^2
Epoch rev:           35263
Checksum:              312

Satellite: NOAA-17
Catalog number: 27453
Epoch time:      07207.44825738
Element set:     510
Inclination:      098.5782 deg
RA of node:       275.8055 deg
Eccentricity:    0.0011268
Arg of perigee:   344.8594 deg
Mean anomaly:     015.2247 deg
Mean motion:   14.23896476 rev/day
Decay rate:        6.2e-07 rev/day^2
Epoch rev:           26430
Checksum:              323

Satellite: NOAA-18
Catalog number: 28654
Epoch time:      07207.46506265
Element set:      46
Inclination:      098.8281 deg
RA of node:       148.0915 deg
Eccentricity:    0.0014740
Arg of perigee:   153.8640 deg
Mean anomaly:     206.3269 deg
Mean motion:   14.11082395 rev/day
Decay rate:       3.46e-06 rev/day^2
Epoch rev:           11239
Checksum:              302

/EX
SB KEPS @ AMSAT  $ORB07207.M
Orbital Elements  07207.MISC

HR AMSAT ORBITAL ELEMENTS FOR MANNED AND MISCELLANEOUS SATELLITES
FROM WA5QGD FORT WORTH,TX July 26, 2007
Send Subscribe/unsubscribe to KEPS at 
http://www.amsat.org/mailman/listinfo/keps
BID: ORB07207.M
TO ALL RADIO AMATEURS BT

Satellite: HUBBLE
Catalog number: 20580
Epoch time:      07207.59012151
Element set:     924
Inclination:      028.4691 deg
RA of node:       293.1702 deg
Eccentricity:    0.0003959
Arg of perigee:   157.1298 deg
Mean anomaly:     202.9467 deg
Mean motion:   15.00263535 rev/day
Decay rate:       2.91e-06 rev/day^2
Epoch rev:           74588
Checksum:              296

Satellite: UARS
Catalog number: 21701
Epoch time:      07206.95168605
Element set:    0137
Inclination:      056.9751 deg
RA of node:       145.6638 deg
Eccentricity:    0.0085413
Arg of perigee:   266.6952 deg
Mean anomaly:     092.4316 deg
Mean motion:   15.48547089 rev/day
Decay rate:      1.836e-05 rev/day^2
Epoch rev:           87175
Checksum:              330

Satellite: PO-34
Catalog number: 25520
Epoch time:      07206.33206305
Element set:     786
Inclination:      028.4604 deg
RA of node:       213.4442 deg
Eccentricity:    0.0005172
Arg of perigee:   309.8082 deg
Mean anomaly:     050.2060 deg
Mean motion:   15.17025296 rev/day
Decay rate:       3.29e-06 rev/day^2
Epoch rev:           48332
Checksum:              263

Satellite: ISS
Catalog number: 25544
Epoch time:      07207.69571917
Element set:     653
Inclination:      051.6339 deg
RA of node:       259.6661 deg
Eccentricity:    0.0009185
Arg of perigee:   166.4909 deg
Mean anomaly:     289.3790 deg
Mean motion:   15.75931002 rev/day
Decay rate:      5.673e-05 rev/day^2
Epoch rev:           49701
Checksum:              336

Satellite: OO-38
Catalog number: 26063
Epoch time:      07206.56604864
Element set:    0970
Inclination:      100.2278 deg
RA of node:       216.2775 deg
Eccentricity:    0.0037375
Arg of perigee:   051.9812 deg
Mean anomaly:     308.4728 deg
Mean motion:   14.35811051 rev/day
Decay rate:       -4.6e-07 rev/day^2
Epoch rev:           39256
Checksum:              307

Satellite: UWE-1
Catalog number: 28892
Epoch time:      07207.28880030
Element set:     804
Inclination:      098.1268 deg
RA of node:       103.1504 deg
Eccentricity:    0.0017511
Arg of perigee:   354.5886 deg
Mean anomaly:     005.5117 deg
Mean motion:   14.59525176 rev/day
Decay rate:        4.4e-07 rev/day^2
Epoch rev:            9291
Checksum:              293

